Probability
0 0 0 0 0 0 0 0 0 0 0 0 0 0 0 0 0 0 0 0 0 0 0 0 0 0 0 0 0 0 0 0 0 0 0 0 0 0 0 0 0 0 0 0
0 0 0 0 0 0 0 0 0 0 0 0 0 0 0 0 0 0 0 0 0 0 0 0 0 0 0 0 0 0 0 0 0 0 0 0 0 0 0 0 0 0 0 0
0 0 0 0 0 0 0 0 0 0 0 0 0 0 0 0 0 0 0 0 0 0 0 0 0 0 0 0 0 0 0 0 0 0 0 0 0 0 0 0 0 0 0 0
0 0 0 0 0 0 0 0 0 0 0 0 0 0 0 0 0 0 0 0 0 0 0 0 0 0 0 0 0 0 0 0 0 0 0 0 0 0 0 0 0 0 0 0
0 0 0 0 0 0 0 0 0 0 0 0 0 0 0 0 0 0 0 0 0 0 0 0 0 0 0 0 0 0 0 0 0 0 0 0 0 0 0 0 0 0 0 0
0 0 0 0 0 0 0 0 0 0 0 0 0 0 0 0 0 0 0 0 0 0 0 0 0 0 0 0 0 0 0 0 0 0 0 0 0 0 0 0 0 0 0 0
0 0 0 0 0 0 0 0 0 0 0 0 0 0 0 0 0 0 0 0 0 0 0 0 0 0 0 0 0 0 0 0 0 0 0 0 0 0 0 0 0 0 0 0
0 0 0 0 0 0 0 0 0 0 0 0 0 0 0 0 0 0 0 0 0 0 0 0 0 0 0 0 0 0 0 0 0 0 0 0 0 0 0 0 0 0 0 0
0 0 0 0 0 0 0 0 0 0 0 0 0 0 0 0 0 0 0 0 0 0 0 0 0 0 0 0 0 0 0 0 0 0 0 0 0 0 0 0 0 0 0 0
0 0 0 0 0 0 0 0 0 0 0 0 0 0 0 0 0 0 0 0 0 0 0 0 0 0 0 0 0 0 0 0 0 0 0 0 0 0 0 0 0 0 0 0
0 0 0 0 0 0 0 0 0 0 0 0 0 0 0 0 0 0 0 0 0 0 0 0 0 0 0 0 0 0 0 0 0 0 0 0 0 0 0 0 0 0 0 0
0 0 0 0 0 0 0 0 0 0 0 0 0 0 0 0 0 0 0 0 0 0 0 0 0 0 0 0 0 0 0 0 0 0 0 0 0 0 0 0 0 0 0 0
0 0 0 0 0 0 0 0 0 0 0 0 0 0 0 0 0 0 0 0 0 0 0 0 0 0 0 0 0 0 0 0 0 0 0 0 0 0 0 0 0 0 0 0
0 0 0 0 0 0 0 0 0 0 0 0 0 0 0 0 0 0 0 0 0 0 0 0 0 0 0 0 0 0 0 0 0 0 0 0 0 0 0 0 0 0 0 0
0 0 0 0 0 0 0 0 0 0 0 0 0 0 0 0 0 0 0 0 0 0 0 0 0 0 0 0 0 0 0 0 0 0 0 0 0 0 0 0 0 0 0 0
0 0 0 0 0 0 0 0 0 0 0 0 0 0 0 0 0 0 0 0 0 0 0 0 0 0 0 0 0 0 0 0 0 0 0 0 0 0 0 0 0 0 0 0
0 0 0 0 0 0 0 0 0 0 0 0 0 0 0 0 0 0 0 0 0 0 0 0 0 0 0 0 0 0 0 0 0 0 0 0 0 0 0 0 0 0 0 0
0 0 0 0 0 0 0 0 0 0 0 0 0 0 0 0 0 0 0 0 0 0 0 0 0 0 0 0 0 0 0 0 0 0 0 0 0 0 0 0 0 0 0 0
0 0 0 0 0 0 0 0 0 0 0 0 0 0 0 0 0 0 0 0 0 0 0 0 0 0 0 0 0 0 0 0 0 0 0 0 0 0 0 0 0 0 0 0
0 0 0 0 0 0 0 0 0 0 0 0 0 0 0 0 0 0 0 0 0 0 0 0 0 0 0 0 0 0 0 0 0 0 0 0 0 0 0 0 0 0 0 0
0 0 0 0 0 0 0 0 0 0 0 0 0 0 0 0 0 0 0 0 0 0 0 0 0 0 0 0 0 0 0 0 0 0 0 0 0 0 0 0 0 0 0 0
0 0 0 0 0 0 0 0 0 0 0 0 0 0 0 0 0 0 0 0 0 0 0 0 0 0 0 0 0 0 0 0 0 0 0 0 0 0 0 0 0 0 0 0
0 0 0 0 0 0 0 0 0 0 0 0 0 0 0 0 0 0 0 0 0 0 0 0 0 0 0 0 0 0 0 0 0 0 0 0 0 0 0 0 0 0 0 0
0 0 0 0 0 0 0 0 0 0 0 0 0 0 0 0 0 0 0 0 0 0 0 0 0 0 0 0 0 0 0 0 0 0 0 0 0 0 0 0 0 0 0 0
0 0 0 0 0 0 0 0 0 0 0 0 0 0 0 0 0 0 0 0 0 0 0 0 0 0 0 0 0 0 0 0 0 0 0 0 0 0 0 0 0 0 0 0
0 0 0 0 0 0 0 0 0 0 0 0 0 0 0 0 0 0 0 0 0 0 0 0 0 0 0 0 0 0 0 0 0 0 0 0 0 0 0 0 0 0 0 0
0 0 0 0 0 0 0 0 0 0 0 0 0 0 0 0 0 0 0 0 0 0 0 0 0 0 0 0 0 0 0 0 0 0 0 0 0 0 0 0 0 0 0 0
Wind_Speed
6 5 4 7 10 8 9 10 10 10 10 11 6 3 1 1 3 3 4 5 5 6 6 6 6 7 7 7 7 7 7 8 8 9 9 9 9 9 9 9 10 10 10 11
3 5 6 10 14 12 11 9 10 11 11 4 0 1 1 2 2 3 5 6 7 7 7 7 7 7 7 7 8 7 8 9 9 9 9 9 10 10 9 10 10 10 10 11
4 4 7 11 9 6 5 5 7 7 4 0 1 2 2 2 2 4 6 7 8 8 8 8 8 7 7 8 8 8 8 9 9 9 10 10 11 10 10 10 10 10 10 11
2 1 9 9 3 3 3 0 1 2 2 1 1 4 4 2 2 5 7 7 7 7 8 8 7 7 8 8 8 8 9 10 10 10 11 11 11 11 11 10 10 10 11 12
4 3 10 10 5 2 3 1 2 3 1 2 3 3 4 2 3 5 7 7 7 7 8 8 8 8 8 9 9 9 10 10 10 10 11 12 12 12 11 11 11 10 10 11
5 5 9 8 4 1 2 2 0 2 1 3 3 5 5 5 6 8 8 7 7 8 7 8 9 8 8 10 10 10 11 11 11 11 12 13 13 13 11 10 12 11 11 11
5 6 11 8 4 2 3 4 1 1 1 2 2 6 7 7 7 7 8 8 8 8 8 8 9 8 9 10 11 12 12 12 12 11 11 12 12 11 11 12 12 11 12 11
6 6 11 3 2 3 3 1 1 2 3 5 6 8 8 7 7 8 8 8 8 8 9 9 8 9 11 13 13 12 12 12 12 12 11 11 12 12 11 12 12 12 11 11
10 9 3 2 5 3 3 1 2 4 5 5 6 6 6 6 7 7 8 8 8 9 10 10 8 8 12 15 14 13 13 13 12 12 10 10 11 13 12 10 10 10 10 10
4 3 2 4 4 2 2 3 4 4 5 4 5 6 7 7 7 7 7 8 8 9 12 13 11 10 11 14 13 13 14 14 12 12 12 10 9 10 10 10 10 11 10 11
3 2 2 2 2 3 2 2 2 3 3 3 4 6 6 6 8 7 8 7 8 9 12 15 14 13 12 12 12 13 13 13 12 11 12 12 10 10 12 11 13 14 11 10
6 4 3 3 2 1 1 2 3 4 5 5 4 6 7 7 7 8 9 9 10 11 13 14 14 14 13 11 11 13 14 12 10 10 10 10 11 12 17 19 24 25 23 21
3 2 3 2 1 1 1 3 3 4 4 6 6 6 7 7 7 8 10 11 12 13 13 14 15 15 13 12 11 12 14 14 11 10 11 11 11 12 13 15 19 22 22 23
2 2 1 1 2 2 3 3 4 4 5 6 6 7 8 9 9 10 11 12 12 13 14 14 15 15 14 13 12 13 13 15 15 11 11 11 11 12 12 13 14 11 14 20
2 2 3 2 2 3 3 3 5 6 7 7 7 8 9 11 12 12 12 12 12 12 13 14 15 16 14 13 13 14 12 11 11 11 10 11 11 11 11 12 12 12 11 13
1 0 0 1 3 4 4 5 6 7 8 9 10 10 11 11 12 13 12 10 11 14 14 14 14 15 14 13 13 12 11 19 19 12 11 11 11 11 11 11 11 11 11 10
2 1 1 3 4 5 6 6 7 9 9 11 12 12 11 11 12 13 12 10 10 12 13 13 14 14 13 12 12 11 11 13 20 14 11 11 11 11 11 11 10 10 10 12
2 2 2 4 5 7 8 8 9 10 11 12 12 11 11 12 13 14 14 12 11 11 11 12 12 13 12 11 11 10 11 11 11 11 11 11 11 10 10 10 11 11 10 10
1 2 4 6 7 7 8 10 10 10 10 11 11 12 12 11 12 13 12 11 13 14 11 9 20 15 11 14 17 10 11 12 11 11 10 14 13 9 9 10 10 10 9 8
4 5 6 8 8 8 10 11 11 11 11 10 11 12 13 12 11 11 11 10 9 10 11 14 13 10 11 12 19 10 10 11 12 11 11 10 10 10 9 9 9 9 8 8
7 8 9 9 10 11 11 11 11 12 12 10 10 13 13 13 11 10 10 11 9 9 11 18 11 9 11 14 18 9 10 11 11 11 11 10 10 10 9 9 9 8 8 7
7 8 10 11 11 12 10 9 10 12 12 11 11 11 12 12 11 9 9 9 10 16 12 8 8 14 20 21 9 9 10 11 10 10 9 9 9 9 9 9 8 8 7 6
8 9 10 11 12 12 12 10 10 10 12 12 12 12 11 11 9 9 10 7 7 16 13 7 15 25 27 13 8 10 10 11 11 10 9 8 8 9 8 9 8 7 6 6
9 10 10 11 10 11 12 12 10 9 10 10 10 10 10 9 8 7 7 14 19 20 10 14 24 25 22 9 8 10 10 10 10 9 9 8 8 8 7 7 7 6 6 6
9 10 10 10 10 9 11 11 10 10 9 8 9 9 8 7 8 9 8 9 16 18 10 14 21 23 13 8 9 10 9 9 10 10 8 8 8 8 7 7 6 6 5 5
9 9 9 9 9 9 8 8 8 8 8 8 8 7 6 6 7 8 7 9 11 16 11 9 10 13 9 9 9 10 9 10 10 9 8 8 8 8 7 6 7 5 4 4
9 8 7 8 7 6 7 7 8 8 8 8 9 8 7 7 7 8 9 8 8 8 8 8 8 8 8 8 9 9 9 9 9 8 8 7 7 7 6 6 5 4 4 3
Wind_Direction
244 252 245 246 255 245 223 213 228 246 250 270 279 271 259 324 343 360 347 333 317 305 297 296 299 300 300 301 303 306 309 307 300 296 294 292 291 289 287 284 281 278 280 279
274 273 281 275 265 254 244 229 233 256 271 278 95 100 20 346 353 341 319 308 303 302 303 302 299 298 299 300 300 303 303 298 296 297 296 295 292 290 288 286 283 280 277 278
265 312 344 280 256 229 218 218 205 224 240 42 32 345 311 298 320 310 301 296 297 298 295 293 291 290 292 290 295 300 297 295 296 296 295 293 293 293 289 287 283 281 278 276
206 12 252 246 243 223 207 271 84 105 86 81 282 278 271 238 294 299 296 297 298 297 294 292 290 293 293 295 299 299 297 295 295 295 294 293 293 291 289 285 282 281 281 279
155 223 277 290 281 203 160 130 67 106 87 316 296 315 298 265 304 297 296 294 292 291 291 293 295 297 300 301 302 302 299 296 295 294 294 295 294 293 291 289 287 282 281 282
158 197 244 253 269 296 93 209 119 95 18 331 2 346 285 292 307 302 300 299 300 301 299 301 301 304 305 304 304 301 299 296 295 293 292 293 293 293 291 288 287 286 283 279
173 215 259 257 269 115 193 240 167 86 311 305 260 241 263 287 291 288 292 295 298 302 301 298 302 307 304 303 300 298 298 298 296 293 291 292 293 292 293 292 290 288 286 283
163 200 250 262 112 141 194 176 192 257 260 261 259 268 280 287 291 300 302 301 305 306 304 302 304 305 304 303 301 300 299 298 297 295 293 297 295 296 293 293 293 292 291 290
189 208 211 86 115 126 139 194 248 254 261 264 272 280 290 292 299 300 299 301 304 303 305 305 303 298 299 303 304 303 302 300 299 298 294 293 294 296 297 294 292 293 292 292
221 246 142 116 124 145 200 217 240 250 264 271 280 288 295 295 298 301 301 305 306 309 310 311 309 300 292 299 303 303 303 303 302 301 300 295 291 291 293 294 293 292 292 292
241 249 133 168 186 211 233 250 280 294 281 285 291 295 294 297 300 301 302 303 304 305 306 307 309 306 303 302 304 304 303 302 302 298 298 300 296 292 293 285 286 292 291 290
227 215 183 229 247 267 321 326 322 321 318 316 305 296 299 299 296 298 302 303 305 304 304 306 308 308 307 305 303 305 307 306 303 302 300 299 300 299 295 293 296 297 296 296
184 178 183 216 240 285 302 310 311 308 301 302 300 294 296 295 294 297 299 302 302 303 304 306 308 308 310 309 307 303 303 304 303 301 301 301 301 301 302 302 300 300 301 301
156 141 174 226 263 302 308 308 308 303 295 288 286 291 293 293 294 296 297 297 298 301 303 305 307 309 310 310 307 303 302 304 305 300 298 298 298 297 298 301 305 303 303 304
174 172 208 252 305 326 329 326 321 310 304 301 295 293 293 294 294 294 293 295 297 299 302 305 307 308 310 309 306 304 304 301 300 297 297 297 297 297 297 297 298 301 303 304
233 324 9 343 327 321 322 318 306 298 297 295 295 292 289 286 287 290 291 292 298 302 304 305 303 304 307 306 305 304 301 305 309 305 301 301 300 299 299 300 300 301 303 305
211 279 308 307 302 297 290 282 277 281 286 288 288 289 291 292 294 295 295 291 285 288 293 296 297 301 302 302 302 303 302 303 307 307 300 299 298 298 299 301 302 303 303 304
190 227 252 262 273 284 289 285 281 282 282 282 288 291 291 293 295 298 299 300 297 293 289 288 294 304 302 303 304 301 301 301 301 301 301 301 302 302 304 305 306 306 306 309
5 306 291 282 275 274 276 280 281 279 280 284 288 289 287 286 287 290 296 300 303 304 300 296 309 314 305 305 311 302 301 304 306 304 303 306 309 307 307 305 305 305 307 311
309 294 286 284 282 278 278 281 283 285 283 282 285 288 290 289 289 292 294 290 284 284 292 302 306 303 304 304 309 305 308 308 307 308 307 307 309 311 309 308 309 310 311 311
296 292 289 287 286 282 278 280 284 286 287 285 283 286 289 291 291 290 294 298 293 288 297 308 313 307 307 311 314 313 311 309 309 309 308 310 312 310 309 309 310 313 316 318
285 284 284 284 285 286 284 281 281 284 287 288 285 284 288 292 293 288 276 279 291 304 310 302 303 309 317 321 317 313 311 311 309 307 308 310 311 311 311 312 313 316 317 315
279 279 281 282 282 285 288 285 281 281 283 284 286 287 286 287 289 293 298 294 295 307 313 299 310 318 322 325 315 312 310 310 309 308 309 309 309 309 311 313 314 315 313 314
280 280 279 280 283 286 288 288 284 281 278 279 278 277 280 287 287 274 275 298 309 312 309 307 317 321 325 322 312 309 307 307 306 307 309 309 308 308 308 309 311 312 313 315
278 281 283 285 287 285 285 289 292 288 284 282 279 276 273 268 276 289 291 292 302 311 307 310 316 320 321 309 309 308 307 305 309 313 310 309 308 308 308 309 310 312 313 315
282 284 283 279 278 282 286 288 289 290 291 292 291 285 280 278 277 283 289 291 293 305 308 304 304 310 310 308 308 308 308 308 310 308 305 305 305 306 307 308 309 310 310 311
284 282 284 286 282 276 278 282 286 289 289 290 294 293 289 289 289 290 292 295 297 298 299 300 302 304 306 307 308 308 307 305 305 304 304 305 304 304 305 305 305 306 308 311